AXM1720 WSSS-WMKP

Flight info

Callsign AXM1720
Flight time N/A
Altitude 32000
Route AROSO3A AROSO Y513 KALIL Y504 BILIK Y506 TEPUS GORVU1E
Aircraft A320/M-SDE3FGHIRWY/LB1

Departure

Time N/A
Airport Singapore Changi Airport (WSSS)

Arrival

Time 2026-05-03 20:29
Airport Penang International Airport (WMKP)
Time Latitude Longitude Altitude Speed Heading
2026-05-03 20:15 4.45534 100.63505 16168 ft 393 kts 338°
2026-05-03 20:15 4.48039 100.62413 15661 ft 391 kts 338°
2026-05-03 20:15 4.50532 100.61327 15128 ft 390 kts 338°
2026-05-03 20:15 4.53015 100.60243 14618 ft 388 kts 338°
2026-05-03 20:16 4.55434 100.59189 14107 ft 387 kts 338°
2026-05-03 20:16 4.57925 100.58104 13549 ft 386 kts 338°
2026-05-03 20:16 4.60422 100.57015 12993 ft 384 kts 338°
2026-05-03 20:16 4.62832 100.55961 12466 ft 381 kts 338°
2026-05-03 20:17 4.65257 100.54899 11924 ft 379 kts 338°
2026-05-03 20:17 4.67661 100.53847 11388 ft 376 kts 338°
2026-05-03 20:17 4.70053 100.52799 10842 ft 373 kts 337°
2026-05-03 20:17 4.72420 100.51763 10392 ft 368 kts 337°
2026-05-03 20:18 4.74722 100.50760 10271 ft 352 kts 337°
2026-05-03 20:18 4.76921 100.49802 10151 ft 338 kts 337°
2026-05-03 20:18 4.79040 100.48879 10038 ft 326 kts 337°
2026-05-03 20:18 4.81072 100.47960 9918 ft 314 kts 332°
2026-05-03 20:19 4.82814 100.46705 9777 ft 305 kts 316°
2026-05-03 20:19 4.84176 100.45095 9499 ft 300 kts 308°
2026-05-03 20:19 4.85451 100.43455 9187 ft 297 kts 308°
2026-05-03 20:19 4.86710 100.41808 8736 ft 298 kts 307°
2026-05-03 20:20 4.87961 100.40157 8320 ft 296 kts 307°
2026-05-03 20:20 4.89184 100.38534 7693 ft 293 kts 307°
2026-05-03 20:20 4.90401 100.36924 7271 ft 289 kts 307°
2026-05-03 20:20 4.91615 100.35319 6896 ft 286 kts 307°
2026-05-03 20:21 4.92820 100.33734 6632 ft 285 kts 307°
2026-05-03 20:21 4.94024 100.32152 6359 ft 284 kts 307°
2026-05-03 20:21 4.95226 100.30574 6068 ft 284 kts 307°
2026-05-03 20:21 4.96419 100.29008 5779 ft 281 kts 307°
2026-05-03 20:22 4.97605 100.27451 5504 ft 280 kts 307°
2026-05-03 20:22 4.98766 100.25931 5235 ft 278 kts 307°
2026-05-03 20:22 4.99944 100.24386 4961 ft 277 kts 307°
2026-05-03 20:22 5.01108 100.22857 4693 ft 275 kts 307°
2026-05-03 20:23 5.02270 100.21331 4414 ft 274 kts 307°
2026-05-03 20:23 5.03451 100.19842 4141 ft 272 kts 313°
2026-05-03 20:23 5.04918 100.18651 3872 ft 271 kts 328°
2026-05-03 20:23 5.06583 100.17771 3599 ft 270 kts 332°
2026-05-03 20:24 5.08248 100.16904 3327 ft 269 kts 332°
2026-05-03 20:24 5.09904 100.16035 3050 ft 268 kts 331°
2026-05-03 20:24 5.11547 100.15170 2775 ft 266 kts 332°
2026-05-03 20:24 5.13275 100.14621 2633 ft 256 kts 355°
2026-05-03 20:25 5.14992 100.14820 2523 ft 244 kts 19°
2026-05-03 20:25 5.16399 100.15638 2423 ft 233 kts 41°
2026-05-03 20:25 5.17566 100.16696 2318 ft 225 kts 42°
2026-05-03 20:25 5.18706 100.17727 2226 ft 218 kts 42°
2026-05-03 20:26 5.19825 100.18737 2113 ft 212 kts 42°
2026-05-03 20:26 5.20887 100.19696 2044 ft 200 kts 42°
2026-05-03 20:26 5.21913 100.20622 1808 ft 197 kts 42°
2026-05-03 20:26 5.22925 100.21535 1538 ft 194 kts 42°
2026-05-03 20:27 5.23909 100.22422 1275 ft 184 kts 42°
2026-05-03 20:27 5.24814 100.23237 1054 ft 165 kts 42°
2026-05-03 20:27 5.25633 100.23977 829 ft 152 kts 42°
2026-05-03 20:27 5.26400 100.24672 637 ft 146 kts 41°
2026-05-03 20:28 5.27152 100.25342 419 ft 143 kts 41°
2026-05-03 20:28 5.27883 100.26012 242 ft 141 kts 42°
2026-05-03 20:28 5.28605 100.26674 63 ft 140 kts 42°
2026-05-03 20:28 5.29276 100.27287 26 ft 111 kts 42°
2026-05-03 20:29 5.29744 100.27712 24 ft 78 kts 42°
2026-05-03 20:29 5.30048 100.27989 25 ft 27 kts 42°
2026-05-03 20:29 5.30159 100.28021 25 ft 16 kts 322°
2026-05-03 20:29 5.30235 100.27926 23 ft 18 kts 282°
2026-05-03 20:30 5.30197 100.27875 23 ft 8 kts 223°
2026-05-03 20:30 5.30131 100.27808 23 ft 21 kts 226°
2026-05-03 20:30 5.29999 100.27684 23 ft 29 kts 222°
2026-05-03 20:30 5.29850 100.27546 23 ft 29 kts 223°
2026-05-03 20:31 5.29703 100.27412 23 ft 29 kts 222°
2026-05-03 20:31 5.29563 100.27285 23 ft 27 kts 222°
2026-05-03 20:31 5.29428 100.27163 23 ft 22 kts 222°
2026-05-03 20:31 5.29309 100.27053 23 ft 24 kts 222°
2026-05-03 20:32 5.29208 100.26963 23 ft 14 kts 224°
2026-05-03 20:32 5.29214 100.26883 23 ft 12 kts 307°
2026-05-03 20:32 5.29262 100.26820 23 ft 11 kts 288°
2026-05-03 20:32 5.29226 100.26763 23 ft 9 kts 223°
2026-05-03 20:33 5.29170 100.26712 24 ft 11 kts 222°
2026-05-03 20:33 5.29157 100.26700 23 ft 0 kts 223°
2026-05-03 20:33 5.29154 100.26697 23 ft 4 kts 224°
2026-05-03 20:33 5.29159 100.26664 23 ft 3 kts 314°
2026-05-03 20:34 5.29175 100.26647 23 ft 3 kts 312°
2026-05-03 20:34 5.29186 100.26635 23 ft 2 kts 311°
2026-05-03 20:34 5.29192 100.26627 23 ft 1 kts 311°
2026-05-03 20:34 5.29195 100.26624 23 ft 0 kts 311°